STARLINK-32253, 60733

Orbit data source: Space-Track

STARLINK-32253, 60733 is a payload satellite owned by SpaceX/Seattle (US) in LEO that was launched on Wed, 28 Aug 2024 UTC via an FALCON 9 launch vehicle from the Air Force Eastern Test Range (AFETR). Payloads include a variety of satellites, spacecraft, and rockets equipped with specific instruments for various scientific and technological missions. These include communications satellites like Starlink; space stations such as the ISS; scientific satellites like the Hubble; Earth observation satellites from companies like Planet Labs, Umbra, and HawkEye 360; GPS; miniature CubeSats for education and research; and military/defense satellites.

Loading next visibility...
STARLINK-32253 details
Identifier
60733, 2024-152P
Orbit
LEO
Last TLE update14 hours ago
Origin
Flag of USSpaceX/Seattle (US)
ManufacturerSpaceX/Seattle
MissionOperational Commercial Communications
Bus & MotorSTARLINK V2M, Unknown motor
Mass730 kg wet, ~700 kg dry
Launch date (UTC)
2024-08-28 (6 months ago)
Launch vehicle
FALCON 9
Launch site
Air Force Eastern Test Range (AFETR)
Object type
Payload
Rocket body
Debris
Shape & HBRBox + 2 Pan, 29 m
Radar Cross Section36.964 m², Large (>1 m²)

Expand to show TLE details & history

TLE from 14 hours ago
0 STARLINK-32253
1 60733U 24152P   25043.05361103 -.00002911  00000-0 -86227-4 0  9990
2 60733  53.1590 282.8240 0000911  71.6967 288.4133 15.30188376 26994
Epoch: 2025-02-12T01:17Z
Definitive object data (Epoch: 2025-02-12T01:17:11.992Z)
Latitude-0.00003°
Longitude121.17441°
Altitude475.952 km
Speed7.629 km/s
True Right ascension18h 51m 17s
True Declination0° 00' 00"
Sunlit
Object was in daylight at TLE epoch
Visualization TLE readout
Latitude-35.73907°
Longitude-29.02148°
Altitude487.239 km
Speed7.621 km/s
Apparent Right ascension07h 12m 34s
Apparent Declination-40° 37' 30"
Sunlit
Object is in full shadow
Visualization observer readout
Local Sidereal Time17:19:56
Azimuth258.94° W
Elevation-68.594°
Doppler factor1
Orbital elements
Apogee altitude476.131 km
Perigee altitude474.882 km
Semi-major axis6,853.643 km
Eccentricity0.0000911
Inclination53.159°
RAAN282.824°
Arg. of periapsis71.6967°
True anomaly288.40339°
Mean anomaly288.4133°
Eccentric anomaly288.40835°
Mean motion3.82526 °/min
BSTAR-0.000086227
Orbital period94.11 mins
Loading maneuver chart data...
Loading historical data...
Loading historical data...
Loading historical data...
Loading historical data...
Loading historical data...
Loading historical data...
Loading historical data...

STARLINK-32253 Visibility forecast

Observer location: undefined°, undefined

Span
Click to sort rows by Start time (UTC) header in descending order
Start Az.
Max El. time (UTC)
Max El. Az.
Max El.
End time (UTC)
End Az.
5 mins2025-02-12 18:43:47.419Z234.491° WSW2025-02-12 18:45:47.419Z296.097° NW44.604°2025-02-12 18:48:47.419Z47.651° ENE
4 mins2025-02-12 23:40:47.419Z347.613° N2025-02-12 23:42:47.419Z26.356° NE16.782°2025-02-12 23:44:47.419Z61.693° ENE
5 mins2025-02-13 01:18:47.419Z312.949° NW2025-02-13 01:20:47.419Z351.471° N44.53°2025-02-13 01:23:47.419Z127.716° SE
|